Location: Campillo
(40.8621°N, 4.2488°W)
Time: 12:55:57
(UTC+00:00)

USA 308 - Pass Details

Date: 23 September 2021
Orbit: 566 x 573 km, 54.0° (Epoch: 23 September)

Event Time Altitude Azimuth Distance (km) Brightness Sun altitude
Rises 19:19:12 0° 303° (WNW) 2,768 7.8 -13.4°
Reaches altitude 10° 19:22:29 10° 329° (NNW) 1,873 6.1 -14.0°
Maximum altitude 19:24:43 14° 1° (N) 1,641 5.4 -14.4°
Drops below altitude 10° 19:26:56 10° 33° (NNE) 1,875 5.3 -14.8°
Enters shadow 19:27:56 - 43° (NE) 2,103 5.5 -15.0°
